Flag for Canada Weather past 2 weeks in Quispamsis, New Brunswick, Canada

Now
50 °F

Sprinkles. Fog.


Feels Like: 50 °F
Forecast: 51 / 71 °F
Wind: No wind

Location: Saint John

Current Time: May 29, 2015 at 12:17:14 AM

Latest Report: May 28, 2015 at 11:00 PM


Visibility: 6 mi

Pressure: 30.11 "Hg

Humidity: 100%

Dew point: 50 °F

Location of QuispamsisLocation

Historic Weather in Quispamsis — Graph

°F

Quispamsis temperature yesterday

Maximum temperature yesterday: 54 °F (at 1:00 PM)
Minimum temperature yesterday: 48 °F (at 6:00 AM)
Average temperature yesterday: 51 °F

Past Weeks' High & Low Weather Summary

 TemperatureHumidityPressure
High68 °F (May 15, 12:00 PM)100% (May 13, 11:00 PM)30.33 "Hg (May 13, 11:00 PM)
Low28 °F (May 14, 3:00 AM)24% (May 16, 2:00 PM)29.49 "Hg (May 20, 5:00 PM)
Average49 °F76%30.06 "Hg
* Reported May 13 11:00 PM — May 28 11:00 PM, Quispamsis, Weather by CustomWeather, © 2015

Note: Actual official high and low records may vary slightly from our data, if they occured in-between our weather recording intervals... More about our weather records

Advertising

Quispamsis weather history for previous 24 hours

 ConditionsComfort  
Time TempWeatherWind HumidityBarometerVisibility
11:00 PM
Thu, May 28
50 °FSprinkles. Fog.No wind100%30.11 "Hg6 mi
10:45 PM50 °FSprinkles. Fog.3 mph100%30.11 "Hg4 mi
10:00 PM50 °FThunderstorms. Fog.12 mph100%30.15 "Hg1 mi
9:00 PM50 °FFog.7 mph100%30.12 "Hg0 mi
8:00 PM52 °FFog.8 mph94%30.10 "Hg0 mi
7:00 PM52 °FFog.8 mph100%30.10 "Hg1 mi
6:53 PM52 °FFog.8 mph100%30.11 "Hg1 mi
6:00 PM52 °FFog.7 mph100%30.11 "Hg1 mi
5:00 PM54 °FFog.15 mph94%30.08 "Hg1 mi
4:00 PM54 °FFog.17 mph94%30.07 "Hg1 mi
3:00 PM54 °FFog.16 mph94%30.09 "Hg1 mi
2:00 PM54 °FFog.14 mph94%30.10 "Hg1 mi
1:00 PM54 °FFog.16 mph94%30.11 "Hg1 mi
12:00 PM52 °FFog.15 mph100%30.12 "Hg1 mi
11:00 AM50 °FFog.15 mph100%30.11 "Hg0 mi
10:00 AM50 °FFog.16 mph100%30.11 "Hg0 mi
9:00 AM50 °FFog.15 mph100%30.11 "Hg0 mi
8:48 AM50 °FFog.14 mph100%30.11 "Hg0 mi
8:00 AM50 °FFog.8 mph100%30.11 "Hg0 mi
7:00 AM48 °FFog.9 mph100%30.10 "Hg0 mi
6:00 AM48 °FFog.8 mph100%30.08 "Hg0 mi
5:00 AM50 °FFog.12 mph100%30.06 "Hg1 mi
4:00 AM50 °FFog.15 mph100%30.06 "Hg0 mi
3:00 AM50 °FFog.14 mph100%30.06 "Hg0 mi
2:00 AM50 °FFog.14 mph100%30.08 "Hg0 mi
1:00 AM50 °FFog.16 mph100%30.09 "Hg0 mi
12:00 AM52 °FFog.10 mph100%30.12 "Hg1 mi
Weather by CustomWeather, © 2015

See weather overviewHow to use our weather pages